User: anonymous   Login
Location: Baix
(44.7118°N, 4.7648°E)
Time: 19:04:38
(UTC+00:00)
Language:

NOSS 0 Rocket - Orbit

View from above orbital plane
View from above orbital plane
View from above satellite
View from above satellite

Ground track
Ground track

The orbit data is extracted from the following two-line orbital elements,

1  5679U 71110B   20296.21958314 -.00000023  00000-0  24948-4 0  9996
2  5679  69.9995  15.1782 0015227 243.8210 116.1324 13.85344016 83472
Epoch (UTC): 22 October 2020 05:16:11
Eccentricity: 0.0015227
inclination: 69.9995°
perigee height: 934 km
apogee height: 956 km
right ascension of ascending node: 15.1782°
argument of perigee: 243.8210°
revolutions per day: 13.85344016
mean anomaly at epoch: 116.1324°
orbit number at epoch: 8347

The dashed part of the orbit path shows where the satellite is in the earth's shadow,  

DLR